#timestamp,LO_Frequency,Hit,StdDev 
1511388015.6,286046999.7,N
1511388035.4,286047001.6,N
1511388055.2,286047004.7,N
1511388075.1,286047009.1,N
1511388076.0,286047009.1,N
1511388095.8,286047007.9,N
1511388115.6,286047010.8,N
1511388135.4,286047010.3,N
1511388155.3,286047006.3,N
1511388175.1,286047007.8,N
1511388195.8,286047008.2,N
1511388215.7,286047010.4,N
1511388235.5,286047009.3,N
1511388255.3,286047010.1,N
1511388275.2,286047011.3,N
1511388295.9,286047014.2,N
1511388315.7,286047015.9,N
1511388335.6,286047013.7,N
1511388355.4,286047011.2,N
1511388375.2,286047008.0,N
1511388395.1,286047008.1,N
1511388396.0,286047008.1,N
1511388415.8,286047005.6,N
1511388435.6,286047006.8,N
1511388455.4,286047016.5,N
1511388475.3,286047023.6,Y
1511388495.1,286047017.4,P
1511388515.9,286047022.1,P
1511388535.7,286047024.4,P
1511388555.5,286047026.9,Y
1511388575.4,286047015.2,P
1511388595.2,286047010.9,P
1511388615.0,286047013.0,P
1511388615.9,286047013.0,Y
1511388635.8,286047001.6,P
1511388655.6,286047002.9,N
1511388675.4,286047002.8,N
1511388695.3,286047000.6,N
1511388715.1,286046996.3,N
1511388716.0,286046996.3,N
1511388735.8,286046990.4,N
1511388755.6,286046988.2,N
1511388775.5,286046984.5,N
1511388795.3,286046984.0,N
1511388815.1,286046982.6,N
1511388835.9,286046982.8,N
1511388855.7,286046979.4,N
1511388875.5,286046983.4,N
1511388895.4,286046981.5,N
1511388915.2,286046977.8,N
1511388935.0,286046981.6,N
1511388935.9,286046981.6,N
1511388955.8,286046982.6,N
1511388975.6,286046982.7,N
1511388995.4,286046982.0,N
1511389015.2,286046979.8,N
1511389035.1,286046975.8,N
1511389036.0,286046975.8,N
1511389055.8,286046974.7,N
1511389075.6,286046978.5,N
1511389095.5,286046980.2,N
1511389115.3,286046976.0,N
1511389135.1,286046975.5,N
1511389155.9,286046969.9,Y
1511389175.7,286046981.4,P
1511389195.5,286046981.6,P
1511389215.4,286046979.7,P
1511389235.2,286046975.6,Y
1511389255.0,286046995.9,P
1511389255.9,286046995.9,N
1511389275.8,286046994.7,N
1511389295.6,286046991.5,N
1511389315.4,286046990.3,N
1511389335.3,286046988.7,N
1511389355.1,286046988.8,N
1511389356.0,286046988.8,N
1511389375.8,286046989.4,N
1511389395.7,286046986.3,Y
1511389415.5,286046996.2,P
1511389435.3,286046992.1,N
1511389455.2,286046990.7,P
1511389475.9,286046989.8,Y
1511389495.7,286046992.9,P
1511389515.6,286046996.5,P
1511389535.4,286046998.8,N
1511389555.2,286046997.1,N
1511389575.1,286046995.4,N
1511389576.0,286046995.4,N
1511389595.8,286046997.0,N
1511389615.6,286047001.0,N
1511389635.5,286046998.2,N
1511389655.3,286046999.8,N
1511389675.1,286047003.8,N
1511389695.8,286047005.7,N
1511389715.7,286047007.2,N
1511389735.5,286047010.4,N
1511389755.3,286047009.3,N
1511389775.2,286047011.4,N
1511389795.9,286047013.5,N
1511389815.7,286047015.7,N
1511389835.6,286047021.7,Y
1511389855.4,286047019.7,P
1511389875.2,286047017.5,N
1511389895.1,286047017.3,N
1511389896.0,286047017.3,N
1511389915.8,286047021.9,Y
1511389935.6,286047007.1,P
1511389955.5,286047008.3,N
1511389975.3,286047006.1,N
1511389995.1,286047008.8,N
1511390015.9,286047008.9,N
1511390035.7,286047008.0,N
1511390055.5,286047006.7,N
1511390075.4,286047005.1,N
1511390095.2,286047006.8,N
1511390115.0,286047010.8,Y
1511390115.9,286047010.8,P
1511390135.8,286047000.0,N
1511390155.6,286047000.6,N
1511390175.4,286047002.6,N
1511390195.3,286047001.4,N
1511390215.1,286047006.5,N
1511390216.0,286047006.5,N
1511390235.8,286047006.3,N
1511390255.6,286047009.1,N
1511390275.5,286047003.3,N
1511390295.3,286047007.5,N
1511390315.1,286047006.1,N
1511390335.9,286047007.8,N
1511390355.7,286047008.9,N
1511390375.5,286047010.7,Y
1511390395.4,286047000.3,P
1511390415.2,286046996.8,N
1511390435.0,286046992.5,N
1511390435.9,286046992.5,N
1511390455.8,286046990.8,N
1511390475.6,286046987.7,N
1511390495.4,286046987.4,N
1511390515.3,286046992.0,N
1511390535.1,286046992.5,N
1511390536.0,286046992.5,N
1511390555.8,286046993.7,N
1511390575.7,286046992.1,N
1511390595.5,286046995.3,N
1511390615.3,286046999.3,N
1511390635.1,286047000.7,N
1511390655.9,286047000.4,N
1511390675.7,286047005.5,N
1511390695.5,286047006.7,N
1511390715.4,286047007.3,N
1511390735.2,286047007.0,N
1511390755.0,286047007.4,N
1511390755.9,286047007.4,N
1511390775.8,286047003.6,N
1511390795.6,286047002.4,N
1511390815.4,286046997.7,N
1511390835.3,286046994.5,N
1511390855.1,286046993.4,N
1511390856.0,286046993.4,N
1511390875.8,286046992.2,N
1511390895.7,286046983.9,N
1511390915.5,286046980.4,N
1511390935.3,286046974.3,Y
1511390955.2,286046980.1,P
1511390975.9,286046978.4,N
1511390995.7,286046978.8,N
1511391015.5,286046979.6,N
1511391035.4,286046979.7,N
1511391055.2,286046980.2,Y
1511391075.1,286046993.4,P
1511391076.0,286046993.4,N
1511391095.8,286046993.0,N
1511391115.6,286046991.1,N
1511391135.5,286046986.3,Y
1511391155.3,286046992.2,P
1511391175.1,286046991.2,P
1511391195.9,286046988.6,P
1511391215.7,286046990.6,Y
1511391235.5,286047001.1,P
1511391255.4,286047000.5,N
1511391275.2,286047000.4,N
1511391295.0,286046999.7,N
1511391295.9,286046999.7,N
1511391315.7,286047000.2,N
1511391335.6,286046996.7,N
1511391355.4,286046999.4,N
1511391375.2,286047001.0,N
1511391395.1,286047001.2,N
1511391396.0,286047001.2,N
1511391415.8,286046998.2,N
1511391435.6,286047001.3,N
1511391455.5,286047003.5,N
1511391475.3,286047002.2,N
1511391495.1,286047001.1,N
1511391515.9,286047001.8,N
1511391535.7,286046999.8,N
1511391555.5,286046998.3,N
1511391575.4,286047001.0,N
1511391595.2,286047001.2,N
